Chicopee, MA

12:31 AM EDT on September 21, 2017 (GMT -0400)
Westover Air Reserve Base / Metropolitan Airport

Weather History for KCEF - March, 2013

Change the Weather History Date:

Thursday, March 28, 2013

  Actual Average Record
Temperature  
Mean Temperature 40 °F -  
Max Temperature 52 °F 48 °F 82 °F (1998)
Min Temperature 29 °F 31 °F 24 °F (2011)
Degree Days  
Heating Degree Days 25    
Moisture  
Dew Point 31 °F    
Average Humidity 66    
Maximum Humidity 96    
Minimum Humidity 39    
Precipitation  
Precipitation 0.00 in - - ()
Sea Level Pressure  
Sea Level Pressure 29.98 in    
Wind  
Wind Speed 6 mph (NNW)    
Max Wind Speed 13 mph    
Max Gust Speed 21 mph    
Visibility 10 miles    
Events Rain    
Averages and records for this station are not official NWS values.
T = Trace of Precipitation, MM = Missing Value Source: NWS Daily Summary

Daily Weather History Graph

Daily Weather History Graph

Search for Another Location

Airport or City:

Trip Planner

Search our weather history database for the weather conditions in past years. The results will help you decide how hot, cold, wet, or windy it might be!

Date:

Astronomy

Mar. 28, 2013 Rise Set
Actual Time 6:39 AM EDT 7:11 PM EDT
Civil Twilight 6:11 AM EDT 7:39 PM EDT
Nautical Twilight 5:37 AM EDT 8:13 PM EDT
Astronomical Twilight 5:03 AM EDT 8:47 PM EDT
Moon 9:03 PM EDT (3/28) 7:03 AM EDT (3/28)
Length of Visible Light 13h 28m
Length of Day
12h 32m
Full, 98% of the Moon is Illuminated
Mar 28
Full
Apr 3
Last Quarter
Apr 10
New
Apr 18
First Quarter
Apr 25
Full

Hourly Weather History & Observations

Time (EDT) Temp. Windchill Dew Point Humidity Pressure Visibility Wind Dir Wind Speed Gust Speed Precip Events Conditions
12:55 AM 39.6 °F 34.7 °F 28.0 °F 63% 29.91 in 10.0 mi NNW 6.9 mph - N/A   Mostly Cloudy
1:55 AM 36.9 °F 34.3 °F 27.3 °F 68% 29.90 in 10.0 mi NNW 3.5 mph - N/A   Partly Cloudy
2:55 AM 29.8 °F 26.3 °F 26.6 °F 88% 29.90 in 10.0 mi NNW 3.5 mph - N/A   Mostly Cloudy
3:55 AM 36.9 °F 32.2 °F 28.4 °F 71% 29.91 in 10.0 mi NNW 5.8 mph - N/A   Overcast
4:55 AM 33.1 °F 30.0 °F 29.1 °F 85% 29.91 in 10.0 mi NNW 3.5 mph - N/A   Overcast
5:55 AM 33.6 °F - 30.0 °F 87% 29.93 in 10.0 mi Calm Calm - N/A   Overcast
6:17 AM 35.6 °F 31.7 °F 30.2 °F 81% 29.93 in 10.0 mi North 4.6 mph - N/A   Overcast
6:49 AM 37.4 °F 32.8 °F 32.0 °F 81% 29.94 in 10.0 mi North 5.8 mph - N/A   Overcast
6:55 AM 36.9 °F 33.1 °F 33.1 °F 86% 29.94 in 7.0 mi North 4.6 mph - 0.00 in Rain Light Rain
7:55 AM 36.3 °F 30.8 °F 34.9 °F 95% 29.96 in 7.0 mi North 6.9 mph - 0.00 in Rain Light Rain
8:16 AM 37.4 °F 30.8 °F 35.6 °F 93% 29.97 in 7.0 mi NNW 9.2 mph - N/A Rain Light Rain
8:27 AM 37.4 °F 33.8 °F 35.6 °F 93% 29.97 in 7.0 mi NNW 4.6 mph - N/A Rain Light Rain
8:55 AM 38.1 °F 33.7 °F 37.0 °F 96% 29.97 in 10.0 mi NNW 5.8 mph - 0.00 in   Overcast
9:16 AM 37.4 °F 29.8 °F 35.6 °F 93% 29.97 in 10.0 mi North 11.5 mph - N/A   Overcast
9:17 AM 37.4 °F 30.3 °F 35.6 °F 93% 29.97 in 10.0 mi North 10.4 mph - N/A   Overcast
9:55 AM 40.5 °F 34.1 °F 37.0 °F 88% 29.98 in 10.0 mi North 10.4 mph - N/A   Mostly Cloudy
10:55 AM 43.3 °F 37.7 °F 34.2 °F 70% 29.98 in 10.0 mi NNW 10.4 mph - N/A   Mostly Cloudy
11:55 AM 47.3 °F - 31.1 °F 53% 29.98 in 10.0 mi NW 6.9 mph - N/A   Mostly Cloudy
12:55 PM 47.8 °F - 28.2 °F 47% 29.97 in 10.0 mi NNW 9.2 mph - N/A   Overcast
1:55 PM 49.6 °F - 27.5 °F 42% 29.96 in 10.0 mi NW 6.9 mph 20.7 mph N/A   Overcast
2:55 PM 51.6 °F - 27.3 °F 39% 29.95 in 10.0 mi West 12.7 mph 19.6 mph N/A   Mostly Cloudy
3:55 PM 48.7 °F - 28.0 °F 45% 29.95 in 10.0 mi WNW 10.4 mph - N/A   Overcast
4:03 PM 48.2 °F - 28.4 °F 46% 29.95 in 10.0 mi NW 8.1 mph - N/A   Light Drizzle
4:12 PM 48.2 °F - 28.4 °F 46% 29.95 in 10.0 mi NW 6.9 mph - N/A   Overcast
4:55 PM 49.1 °F - 26.6 °F 42% 29.96 in 10.0 mi North 8.1 mph - 0.00 in   Overcast
5:55 PM 47.8 °F - 29.3 °F 49% 29.97 in 10.0 mi NW 9.2 mph - N/A   Overcast
6:22 PM 46.4 °F 42.9 °F 30.2 °F 53% 29.99 in 10.0 mi NW 6.9 mph - N/A Rain Light Rain
6:38 PM 46.4 °F 42.4 °F 32.0 °F 57% 29.99 in 10.0 mi NW 8.1 mph - N/A   Overcast
6:55 PM 46.0 °F 43.1 °F 30.6 °F 55% 30.00 in 10.0 mi NW 5.8 mph - 0.00 in   Overcast
7:12 PM 46.4 °F 43.5 °F 30.2 °F 53% 30.01 in 10.0 mi NW 5.8 mph - N/A   Light Drizzle
7:22 PM 46.4 °F 44.3 °F 30.2 °F 53% 30.01 in 10.0 mi NW 4.6 mph - N/A   Overcast
7:55 PM 45.9 °F 42.9 °F 30.0 °F 54% 30.02 in 10.0 mi NNW 5.8 mph - 0.00 in   Mostly Cloudy
8:11 PM 46.4 °F 41.9 °F 30.2 °F 53% 30.03 in 10.0 mi North 9.2 mph - N/A   Light Drizzle
8:29 PM 46.4 °F 41.1 °F 30.2 °F 53% 30.04 in 10.0 mi NNE 11.5 mph - N/A   Mostly Cloudy
8:55 PM 45.5 °F 42.5 °F 30.2 °F 55% 30.04 in 10.0 mi North 5.8 mph - 0.00 in   Light Drizzle
9:03 PM 44.6 °F 42.2 °F 30.2 °F 57% 30.04 in 10.0 mi North 4.6 mph - N/A   Mostly Cloudy
9:19 PM 44.6 °F - 30.2 °F 57% 30.05 in 10.0 mi Calm Calm - N/A Rain Light Rain
9:43 PM 44.6 °F 42.2 °F 33.8 °F 66% 30.05 in 10.0 mi NW 4.6 mph - N/A   Overcast
9:47 PM 44.6 °F 42.2 °F 33.8 °F 66% 30.05 in 10.0 mi NW 4.6 mph - N/A   Light Drizzle
9:55 PM 43.9 °F 41.3 °F 34.2 °F 69% 30.05 in 10.0 mi WNW 4.6 mph - 0.00 in   Light Drizzle
9:58 PM 44.6 °F 42.2 °F 33.8 °F 66% 30.05 in 10.0 mi WNW 4.6 mph - N/A   Mostly Cloudy
10:55 PM 44.1 °F 42.5 °F 32.7 °F 64% 30.05 in 10.0 mi NW 3.5 mph - 0.00 in   Overcast
11:55 PM 42.4 °F 38.8 °F 33.1 °F 69% 30.05 in 10.0 mi NW 5.8 mph - N/A   Overcast